| time (UTC) | temp C | wind direction | speed KPH | gust KPH | rain 1hr cm | rain 24hr cm | rain mn cm | humidity % | barometer mb |
| 20260504232702 | 20 | 263 | 0.0 | 0.0 | 0.00 | 0.00 | 0.00 | ||
| 20260504231658 | 20 | 214 | 0.0 | 0.0 | 0.00 | 0.00 | 0.00 | ||
| 20260504230650 | 21 | 219 | 1.6 | 6.4 | 0.00 | 0.00 | 0.00 | ||
| 20260504225649 | 22 | 260 | 4.8 | 11.3 | 0.00 | 0.00 | 0.00 | ||
| 20260504224639 | 22 | 266 | 1.6 | 16.1 | 0.00 | 0.00 | 0.00 | ||
| 20260504223633 | 23 | 240 | 8.0 | 3.2 | 0.00 | 0.00 | 0.00 | ||
| 20260504222620 | 24 | 158 | 6.4 | 3.2 | 0.00 | 0.00 | 0.00 | ||
| 20260504221615 | 25 | 48 | 1.6 | 0.0 | 0.00 | 0.00 | 0.00 | ||
| 20260504215606 | 25 | 257 | 17.7 | 6.4 | 0.00 | 0.00 | 0.00 | ||
| 20260504214601 | 25 | 277 | 14.5 | 11.3 | 0.00 | 0.00 | 0.00 | ||
| 20260504213554 | 25 | 269 | 17.7 | 19.3 | 0.00 | 0.00 | 0.00 | ||
| 20260504212550 | 25 | 240 | 8.0 | 4.8 | 0.00 | 0.00 | 0.00 | ||
| 20260504211545 | 25 | 198 | 8.0 | 3.2 | 0.00 | 0.00 | 0.00 | ||
| 20260504210540 | 25 | 257 | 17.7 | 22.5 | 0.00 | 0.00 | 0.00 | ||
| 20260504205538 | 25 | 222 | 9.7 | 11.3 | 0.00 | 0.00 | 0.00 | ||
| 20260504204533 | 25 | 248 | 9.7 | 17.7 | 0.00 | 0.00 | 0.00 | ||
| 20260504203527 | 26 | 238 | 12.9 | 8.0 | 0.00 | 0.00 | 0.00 | ||
| 20260504202522 | 25 | 253 | 16.1 | 17.7 | 0.00 | 0.00 | 0.00 | ||
| 20260504201517 | 25 | 229 | 14.5 | 11.3 | 0.00 | 0.00 | 0.00 | ||
| 20260504200521 | 25 | 250 | 12.9 | 6.4 | 0.00 | 0.00 | 0.00 | ||
| 20260504195522 | 25 | 264 | 16.1 | 20.9 | 0.00 | 0.00 | 0.00 | ||
| 20260504194505 | 25 | 211 | 16.1 | 12.9 | 0.00 | 0.00 | 0.00 | ||
| 20260504193501 | 25 | 242 | 20.9 | 11.3 | 0.00 | 0.00 | 0.00 | ||
| 20260504192455 | 25 | 221 | 14.5 | 4.8 | 0.00 | 0.00 | 0.00 | ||
| 20260504191452 | 25 | 222 | 9.7 | 3.2 | 0.00 | 0.00 | 0.00 | ||
| 20260504190444 | 25 | 260 | 11.3 | 8.0 | 0.00 | 0.00 | 0.00 | ||
| 20260504184434 | 25 | 262 | 14.5 | 14.5 | 0.00 | 0.00 | 0.00 | ||
| 20260504183430 | 25 | 276 | 8.0 | 8.0 | 0.00 | 0.00 | 0.00 | ||
| 20260504182427 | 25 | 269 | 14.5 | 16.1 | 0.00 | 0.00 | 0.00 | ||
| 20260504181421 | 25 | 277 | 12.9 | 11.3 | 0.00 | 0.00 | 0.00 | ||
| 20260504180418 | 24 | 266 | 17.7 | 16.1 | 0.00 | 0.00 | 0.00 | ||
| 20260504175410 | 24 | 264 | 16.1 | 12.9 | 0.00 | 0.00 | 0.00 | ||
| 20260504174405 | 24 | 260 | 14.5 | 14.5 | 0.00 | 0.00 | 0.00 | ||
| 20260504173357 | 24 | 269 | 14.5 | 14.5 | 0.00 | 0.00 | 0.00 | ||
| 20260504172359 | 24 | 287 | 8.0 | 8.0 | 0.00 | 0.00 | 0.00 | ||
| 20260504171345 | 24 | 274 | 12.9 | 9.7 | 0.00 | 0.00 | 0.00 | ||
| 20260504170340 | 24 | 252 | 9.7 | 6.4 | 0.00 | 0.00 | 0.00 | ||
| 20260504160307 | 22 | 262 | 6.4 | 11.3 | 0.00 | 0.00 | 0.00 | ||
| 20260504150241 | 19 | 270 | 12.9 | 11.3 | 0.00 | 0.00 | 0.00 | ||
| 20260504141205 | 17 | 259 | 12.9 | 16.1 | 0.00 | 0.00 | 0.00 | ||
| 20260504140159 | 17 | 262 | 14.5 | 8.0 | 0.00 | 0.00 | 0.00 | ||
| 20260504130126 | 15 | 257 | 14.5 | 20.9 | 0.00 | 0.00 | 0.00 | ||
| 20260504081834 | 11 | 174 | 6.4 | 1.6 | 0.00 | 0.00 | 0.00 | ||
| 20260504080829 | 11 | 228 | 1.6 | 6.4 | 0.00 | 0.00 | 0.00 | ||
| 20260504050750 | 10 | 259 | 8.0 | 11.3 | 0.00 | 0.00 | 0.00 | ||
| 20260504050603 | 10 | 259 | 8.0 | 11.3 | 0.00 | 0.00 | 0.00 | ||
| 20260504044554 | 9 | 170 | 0.0 | 0.0 | 0.00 | 0.00 | 0.00 | ||
| 20260504043549 | 9 | 273 | 3.2 | 3.2 | 0.00 | 0.00 | 0.00 | ||
| 20260504042544 | 9 | 225 | 4.8 | 3.2 | 0.00 | 0.00 | 0.00 | ||
| 20260504041539 | 8 | 229 | 4.8 | 4.8 | 0.00 | 0.00 | 0.00 | ||
| 20260504040529 | 8 | 153 | 0.0 | 0.0 | 0.00 | 0.00 | 0.00 | ||
| 20260504035520 | 8 | 153 | 0.0 | 0.0 | 0.00 | 0.00 | 0.00 | ||
| 20260504034507 | 9 | 153 | 0.0 | 0.0 | 0.00 | 0.00 | 0.00 | ||
| 20260504033457 | 9 | 236 | 0.0 | 0.0 | 0.00 | 0.00 | 0.00 | ||
| 20260504032450 | 8 | 236 | 0.0 | 0.0 | 0.00 | 0.00 | 0.00 | ||
| 20260504031444 | 9 | 236 | 0.0 | 0.0 | 0.00 | 0.00 | 0.00 | ||
| 20260504030438 | 8 | 236 | 0.0 | 0.0 | 0.00 | 0.00 | 0.00 | ||
| 20260504025432 | 8 | 236 | 0.0 | 0.0 | 0.00 | 0.00 | 0.00 | ||
| 20260504024421 | 10 | 236 | 0.0 | 0.0 | 0.00 | 0.00 | 0.00 | ||
| 20260504023414 | 8 | 236 | 0.0 | 0.0 | 0.00 | 0.00 | 0.00 | ||
| 20260504022405 | 8 | 236 | 0.0 | 0.0 | 0.00 | 0.00 | 0.00 | ||
| 20260504021341 | 9 | 236 | 0.0 | 0.0 | 0.00 | 0.00 | 0.00 | ||
| 20260504020337 | 8 | 236 | 0.0 | 0.0 | 0.00 | 0.00 | 0.00 | ||
| 20260504015329 | 9 | 236 | 0.0 | 0.0 | 0.00 | 0.00 | 0.00 | ||
| 20260504014322 | 9 | 236 | 0.0 | 0.0 | 0.00 | 0.00 | 0.00 | ||
| 20260504011303 | 10 | 236 | 0.0 | 0.0 | 0.00 | 0.00 | 0.00 | ||
| 20260504010246 | 10 | 236 | 0.0 | 0.0 | 0.00 | 0.00 | 0.00 | ||
| 20260504005232 | 10 | 236 | 0.0 | 0.0 | 0.00 | 0.00 | 0.00 | ||
| 20260504004213 | 10 | 236 | 0.0 | 0.0 | 0.00 | 0.00 | 0.00 | ||
| 20260504003207 | 10 | 236 | 0.0 | 0.0 | 0.00 | 0.00 | 0.00 | ||
| 20260504002157 | 11 | 236 | 0.0 | 0.0 | 0.00 | 0.00 | 0.00 | ||
| 20260504001150 | 12 | 269 | 0.0 | 0.0 | 0.00 | 0.00 | 0.00 | ||
| 20260504000148 | 12 | 269 | 0.0 | 0.0 | 0.00 | 0.00 | 0.00 | ||
| 20260503235136 | 13 | 210 | 0.0 | 0.0 | 0.00 | 0.00 | 0.00 | ||
| 20260503234128 | 13 | 262 | 0.0 | 0.0 | 0.00 | 0.00 | 0.00 | ||
| 20260503233122 | 14 | 252 | 0.0 | 3.2 | 0.00 | 0.00 | 0.00 |